| time (UTC) | temp F | wind direction | speed knots | gust knots | rain 1hr in | rain 24hr in | rain mn in | humidity % | barometer mb |
| 20260510171044 | 89 | 218 | 4.3 | 11.3 | 0.00 | 0.00 | 0.00 | 60 | 1043.1 |
| 20260510170545 | 87 | 232 | 3.5 | 11.3 | 0.00 | 0.00 | 0.00 | 63 | 1043.3 |
| 20260510170049 | 87 | 254 | 5.2 | 11.3 | 0.00 | 0.00 | 0.00 | 63 | 1043.4 |
| 20260510165545 | 88 | 294 | 3.5 | 10.4 | 0.00 | 0.00 | 0.00 | 60 | 1043.3 |
| 20260510165047 | 91 | 275 | 4.3 | 10.4 | 0.00 | 0.00 | 0.00 | 55 | 1043.2 |
| 20260510164554 | 90 | 225 | 4.3 | 10.4 | 0.00 | 0.00 | 0.00 | 54 | 1043.3 |
| 20260510164042 | 91 | 315 | 3.5 | 10.4 | 0.00 | 0.00 | 0.00 | 53 | 1043.4 |
| 20260510163543 | 90 | 310 | 6.1 | 11.3 | 0.00 | 0.00 | 0.00 | 56 | 1043.4 |
| 20260510163044 | 89 | 244 | 6.1 | 13.9 | 0.00 | 0.00 | 0.00 | 56 | 1043.5 |
| 20260510162539 | 89 | 271 | 2.6 | 11.3 | 0.00 | 0.00 | 0.00 | 58 | 1043.5 |
| 20260510162039 | 89 | 292 | 2.6 | 10.4 | 0.00 | 0.00 | 0.00 | 58 | 1043.5 |
| 20260510161546 | 89 | 250 | 1.7 | 8.7 | 0.00 | 0.00 | 0.00 | 60 | 1043.7 |
| 20260510161039 | 89 | 240 | 2.6 | 11.3 | 0.00 | 0.00 | 0.00 | 62 | 1043.7 |
| 20260510160538 | 89 | 241 | 5.2 | 13.0 | 0.00 | 0.00 | 0.00 | 61 | 1043.8 |
| 20260510160049 | 89 | 272 | 6.1 | 13.0 | 0.00 | 0.00 | 0.00 | 60 | 1043.8 |
| 20260510155536 | 90 | 217 | 0.9 | 7.0 | 0.00 | 0.00 | 0.00 | 60 | 1043.7 |
| 20260510155035 | 88 | 277 | 3.5 | 7.8 | 0.00 | 0.00 | 0.00 | 62 | 1043.8 |
| 20260510154537 | 88 | 223 | 2.6 | 7.8 | 0.00 | 0.00 | 0.00 | 65 | 1043.8 |
| 20260510154031 | 86 | 300 | 1.7 | 5.2 | 0.00 | 0.00 | 0.00 | 69 | 1043.7 |
| 20260510153531 | 85 | 268 | 1.7 | 6.1 | 0.00 | 0.00 | 0.00 | 69 | 1043.8 |
| 20260510153033 | 86 | 305 | 1.7 | 6.1 | 0.00 | 0.00 | 0.00 | 69 | 1043.7 |
| 20260510152531 | 86 | 291 | 1.7 | 6.1 | 0.00 | 0.00 | 0.00 | 68 | 1043.8 |
| 20260510152032 | 87 | 252 | 1.7 | 7.0 | 0.00 | 0.00 | 0.00 | 65 | 1043.8 |
| 20260510151531 | 87 | 121 | 2.6 | 9.6 | 0.00 | 0.00 | 0.00 | 67 | 1043.8 |
| 20260510151030 | 86 | 281 | 4.3 | 9.6 | 0.00 | 0.00 | 0.00 | 70 | 1043.8 |
| 20260510150529 | 86 | 186 | 3.5 | 7.8 | 0.00 | 0.00 | 0.00 | 66 | 1043.8 |
| 20260510150029 | 85 | 268 | 1.7 | 6.1 | 0.00 | 0.00 | 0.00 | 70 | 1043.8 |
| 20260510145528 | 86 | 289 | 0.0 | 4.3 | 0.00 | 0.00 | 0.00 | 69 | 1043.8 |
| 20260510145027 | 87 | 260 | 0.9 | 6.1 | 0.00 | 0.00 | 0.00 | 67 | 1043.8 |
| 20260510144527 | 85 | 197 | 2.6 | 7.8 | 0.00 | 0.00 | 0.00 | 70 | 1043.8 |
| 20260510144025 | 86 | 202 | 2.6 | 7.0 | 0.00 | 0.00 | 0.00 | 70 | 1043.7 |
| 20260510143523 | 85 | 205 | 1.7 | 7.0 | 0.00 | 0.00 | 0.00 | 73 | 1043.7 |
| 20260510143023 | 85 | 225 | 3.5 | 7.8 | 0.00 | 0.00 | 0.00 | 71 | 1043.8 |
| 20260510142521 | 84 | 254 | 1.7 | 8.7 | 0.00 | 0.00 | 0.00 | 74 | 1043.8 |
| 20260510142019 | 84 | 271 | 5.2 | 8.7 | 0.00 | 0.00 | 0.00 | 72 | 1043.6 |
| 20260510141519 | 84 | 244 | 2.6 | 7.8 | 0.00 | 0.00 | 0.00 | 73 | 1043.5 |
| 20260510141018 | 84 | 241 | 0.9 | 6.1 | 0.00 | 0.00 | 0.00 | 72 | 1043.6 |
| 20260510140517 | 84 | 222 | 2.6 | 7.0 | 0.00 | 0.00 | 0.00 | 75 | 1043.6 |
| 20260510140015 | 83 | 355 | 0.9 | 7.0 | 0.00 | 0.00 | 0.00 | 75 | 1043.6 |
| 20260510135514 | 83 | 182 | 1.7 | 7.0 | 0.00 | 0.00 | 0.00 | 75 | 1043.5 |
| 20260510135014 | 83 | 292 | 3.5 | 7.8 | 0.00 | 0.00 | 0.00 | 75 | 1043.7 |
| 20260510134512 | 83 | 281 | 3.5 | 8.7 | 0.00 | 0.00 | 0.00 | 74 | 1043.6 |
| 20260510134012 | 83 | 254 | 3.5 | 8.7 | 0.00 | 0.00 | 0.00 | 75 | 1043.5 |
| 20260510133511 | 82 | 123 | 0.9 | 5.2 | 0.00 | 0.00 | 0.00 | 78 | 1043.5 |
| 20260510133008 | 82 | 191 | 2.6 | 6.1 | 0.00 | 0.00 | 0.00 | 78 | 1043.4 |
| 20260510132509 | 82 | 258 | 2.6 | 6.1 | 0.00 | 0.00 | 0.00 | 78 | 1043.4 |
| 20260510132006 | 81 | 5 | 1.7 | 7.8 | 0.00 | 0.00 | 0.00 | 80 | 1043.3 |
| 20260510131504 | 80 | 197 | 2.6 | 7.8 | 0.00 | 0.00 | 0.00 | 81 | 1043.3 |
| 20260510131003 | 79 | 196 | 0.0 | 7.0 | 0.00 | 0.00 | 0.00 | 82 | 1043.3 |
| 20260510130502 | 79 | 234 | 0.9 | 5.2 | 0.00 | 0.00 | 0.00 | 84 | 1043.4 |
| 20260510130100 | 79 | 144 | 1.7 | 4.3 | 0.00 | 0.00 | 0.00 | 84 | 1043.3 |
| 20260510125558 | 78 | 257 | 0.9 | 5.2 | 0.00 | 0.00 | 0.00 | 87 | 1043.4 |
| 20260510125057 | 77 | 116 | 1.7 | 7.0 | 0.00 | 0.00 | 0.00 | 89 | 1043.4 |
| 20260510124611 | 76 | 199 | 0.0 | 7.0 | 0.00 | 0.00 | 0.00 | 92 | 1043.4 |
| 20260510124058 | 76 | 306 | 2.6 | 7.0 | 0.00 | 0.00 | 0.00 | 94 | 1043.4 |
| 20260510123553 | 75 | 229 | 0.9 | 5.2 | 0.00 | 0.00 | 0.00 | 97 | 1043.1 |
| 20260510123052 | 75 | 200 | 1.7 | 5.2 | 0.00 | 0.00 | 0.00 | 100 | 1043.1 |
| 20260510122551 | 74 | 252 | 0.9 | 4.3 | 0.00 | 0.00 | 0.00 | 100 | 1043.0 |
| 20260510122049 | 74 | 204 | 0.9 | 4.3 | 0.00 | 0.00 | 0.00 | 100 | 1043.0 |
| 20260510121547 | 73 | 206 | 0.9 | 3.5 | 0.00 | 0.00 | 0.00 | 100 | 1043.1 |
| 20260510121046 | 73 | 237 | 0.9 | 3.5 | 0.00 | 0.00 | 0.00 | 100 | 1043.0 |
| 20260510120545 | 73 | 190 | 0.0 | 2.6 | 0.00 | 0.00 | 0.00 | 100 | 1043.0 |
| 20260510120043 | 72 | 213 | 0.0 | 1.7 | 0.00 | 0.00 | 0.00 | 100 | 1042.9 |
| 20260510115541 | 72 | 235 | 0.0 | 1.7 | 0.00 | 0.00 | 0.00 | 100 | 1042.8 |
| 20260510115041 | 72 | 222 | 0.0 | 1.7 | 0.00 | 0.00 | 0.00 | 100 | 1042.7 |
| 20260510114542 | 71 | 192 | 0.0 | 0.9 | 0.00 | 0.00 | 0.00 | 100 | 1042.7 |
| 20260510114040 | 71 | 178 | 0.0 | 0.9 | 0.00 | 0.00 | 0.00 | 100 | 1042.6 |
| 20260510113540 | 70 | 149 | 0.0 | 0.0 | 0.00 | 0.00 | 0.00 | 100 | 1042.5 |
| 20260510113037 | 70 | 149 | 0.0 | 0.0 | 0.00 | 0.00 | 0.00 | 100 | 1042.4 |
| 20260510112535 | 70 | 149 | 0.0 | 0.0 | 0.00 | 0.00 | 0.00 | 100 | 1042.3 |
| 20260510112035 | 70 | 149 | 0.0 | 0.0 | 0.00 | 0.00 | 0.00 | 100 | 1042.3 |
| 20260510111557 | 70 | 149 | 0.0 | 0.0 | 0.00 | 0.00 | 0.00 | 100 | 1042.2 |
| 20260510111034 | 70 | 149 | 0.0 | 0.0 | 0.00 | 0.00 | 0.00 | 100 | 1042.2 |
| 20260510110533 | 70 | 149 | 0.0 | 0.0 | 0.00 | 0.00 | 0.00 | 100 | 1042.1 |
| 20260510110032 | 69 | 149 | 0.0 | 0.0 | 0.00 | 0.00 | 0.00 | 100 | 1042.0 |
| 20260510105531 | 70 | 149 | 0.0 | 0.0 | 0.00 | 0.00 | 0.00 | 100 | 1041.9 |
| 20260510105031 | 70 | 149 | 0.0 | 0.0 | 0.00 | 0.00 | 0.00 | 100 | 1041.8 |
| 20260510104539 | 70 | 149 | 0.0 | 0.0 | 0.00 | 0.00 | 0.00 | 100 | 1041.7 |
| 20260510104030 | 70 | 149 | 0.0 | 0.0 | 0.00 | 0.00 | 0.00 | 100 | 1041.7 |
| 20260510103529 | 70 | 151 | 0.0 | 0.0 | 0.00 | 0.00 | 0.00 | 100 | 1041.6 |
| 20260510103034 | 70 | 152 | 0.0 | 0.0 | 0.00 | 0.00 | 0.00 | 100 | 1041.5 |
| 20260510102529 | 70 | 155 | 0.0 | 0.0 | 0.00 | 0.00 | 0.00 | 100 | 1041.5 |
| 20260510102029 | 70 | 155 | 0.0 | 0.0 | 0.00 | 0.00 | 0.00 | 100 | 1041.4 |
| 20260510101528 | 70 | 155 | 0.0 | 0.0 | 0.00 | 0.00 | 0.00 | 100 | 1041.3 |
| 20260510101027 | 71 | 155 | 0.0 | 0.0 | 0.00 | 0.00 | 0.00 | 100 | 1041.3 |
| 20260510100529 | 71 | 155 | 0.0 | 0.0 | 0.00 | 0.00 | 0.00 | 100 | 1041.2 |
| 20260510100027 | 71 | 155 | 0.0 | 0.0 | 0.00 | 0.00 | 0.00 | 100 | 1041.1 |
| 20260510095527 | 71 | 155 | 0.0 | 0.0 | 0.00 | 0.00 | 0.00 | 100 | 1041.1 |
| 20260510095031 | 71 | 155 | 0.0 | 0.0 | 0.00 | 0.00 | 0.00 | 100 | 1041.1 |
| 20260510094529 | 72 | 155 | 0.0 | 0.0 | 0.00 | 0.00 | 0.00 | 100 | 1041.0 |
| 20260510094026 | 72 | 155 | 0.0 | 0.0 | 0.00 | 0.00 | 0.00 | 100 | 1041.0 |
| 20260510093526 | 72 | 155 | 0.0 | 0.0 | 0.00 | 0.00 | 0.00 | 100 | 1040.8 |
| 20260510093026 | 72 | 155 | 0.0 | 0.9 | 0.00 | 0.00 | 0.00 | 100 | 1040.7 |
| 20260510092526 | 72 | 155 | 0.0 | 0.9 | 0.00 | 0.00 | 0.00 | 100 | 1040.7 |
| 20260510092025 | 72 | 161 | 0.0 | 0.9 | 0.00 | 0.00 | 0.00 | 100 | 1040.7 |
| 20260510091545 | 72 | 167 | 0.0 | 1.7 | 0.00 | 0.00 | 0.00 | 100 | 1040.7 |
| 20260510091025 | 72 | 185 | 0.0 | 2.6 | 0.00 | 0.00 | 0.00 | 100 | 1040.6 |
| 20260510090525 | 72 | 223 | 0.0 | 1.7 | 0.00 | 0.00 | 0.00 | 100 | 1040.6 |
| 20260510090025 | 72 | 190 | 0.0 | 1.7 | 0.00 | 0.00 | 0.00 | 100 | 1040.6 |
| 20260510085525 | 72 | 155 | 0.0 | 0.0 | 0.00 | 0.00 | 0.00 | 100 | 1040.5 |
| 20260510085023 | 72 | 196 | 0.0 | 1.7 | 0.00 | 0.00 | 0.00 | 100 | 1040.4 |
| 20260510084525 | 72 | 194 | 0.0 | 2.6 | 0.00 | 0.00 | 0.00 | 100 | 1040.3 |
| 20260510084020 | 72 | 194 | 0.0 | 2.6 | 0.00 | 0.00 | 0.00 | 100 | 1040.3 |
| 20260510083521 | 72 | 205 | 0.0 | 1.7 | 0.00 | 0.00 | 0.00 | 100 | 1040.4 |
| 20260510083018 | 72 | 172 | 0.0 | 1.7 | 0.00 | 0.00 | 0.00 | 100 | 1040.4 |
| 20260510082516 | 72 | 170 | 0.0 | 1.7 | 0.00 | 0.00 | 0.00 | 100 | 1040.3 |
| 20260510082014 | 72 | 144 | 0.0 | 1.7 | 0.00 | 0.00 | 0.00 | 100 | 1040.3 |
| 20260510081529 | 72 | 194 | 0.0 | 2.6 | 0.00 | 0.00 | 0.00 | 100 | 1040.3 |
| 20260510081012 | 72 | 119 | 0.0 | 3.5 | 0.00 | 0.00 | 0.00 | 100 | 1040.2 |
| 20260510080510 | 72 | 124 | 0.0 | 2.6 | 0.00 | 0.00 | 0.00 | 100 | 1040.1 |
| 20260510080011 | 72 | 219 | 0.0 | 2.6 | 0.00 | 0.00 | 0.00 | 100 | 1040.2 |
| 20260510075509 | 72 | 126 | 0.9 | 1.7 | 0.00 | 0.00 | 0.00 | 100 | 1040.2 |
| 20260510075006 | 72 | 275 | 0.0 | 3.5 | 0.00 | 0.00 | 0.00 | 100 | 1040.2 |
| 20260510074507 | 72 | 242 | 0.0 | 4.3 | 0.00 | 0.00 | 0.00 | 100 | 1040.2 |
| 20260510074004 | 72 | 152 | 0.9 | 3.5 | 0.00 | 0.00 | 0.00 | 100 | 1040.2 |
| 20260510073501 | 72 | 195 | 0.0 | 3.5 | 0.00 | 0.00 | 0.00 | 100 | 1040.1 |
| 20260510073100 | 72 | 169 | 0.0 | 3.5 | 0.00 | 0.00 | 0.00 | 100 | 1040.1 |
| 20260510072558 | 72 | 221 | 0.9 | 3.5 | 0.00 | 0.00 | 0.00 | 100 | 1040.2 |
| 20260510072103 | 72 | 169 | 0.9 | 3.5 | 0.00 | 0.00 | 0.00 | 100 | 1040.1 |
| 20260510071555 | 72 | 159 | 0.0 | 4.3 | 0.00 | 0.00 | 0.00 | 100 | 1040.3 |
| 20260510071055 | 72 | 165 | 0.0 | 1.7 | 0.00 | 0.00 | 0.00 | 100 | 1040.4 |
| 20260510070555 | 72 | 140 | 0.0 | 2.6 | 0.00 | 0.00 | 0.00 | 100 | 1040.4 |
| 20260510065553 | 71 | 182 | 0.0 | 1.7 | 0.00 | 0.00 | 0.00 | 100 | 1040.4 |
| 20260510065052 | 71 | 192 | 0.0 | 1.7 | 0.00 | 0.00 | 0.00 | 100 | 1040.5 |
| 20260510064607 | 71 | 175 | 0.0 | 1.7 | 0.00 | 0.00 | 0.00 | 99 | 1040.5 |
| 20260510064049 | 71 | 179 | 0.0 | 4.3 | 0.00 | 0.00 | 0.00 | 99 | 1040.6 |
| 20260510063549 | 71 | 192 | 0.0 | 2.6 | 0.00 | 0.00 | 0.00 | 99 | 1040.6 |
| 20260510063049 | 71 | 163 | 0.0 | 2.6 | 0.00 | 0.00 | 0.00 | 99 | 1040.8 |
| 20260510062550 | 71 | 155 | 0.0 | 1.7 | 0.00 | 0.00 | 0.00 | 98 | 1040.9 |
| 20260510062046 | 71 | 171 | 0.0 | 1.7 | 0.00 | 0.00 | 0.00 | 98 | 1041.0 |
| 20260510061550 | 71 | 152 | 0.0 | 1.7 | 0.00 | 0.00 | 0.00 | 98 | 1041.1 |
| 20260510061048 | 71 | 144 | 0.0 | 1.7 | 0.00 | 0.00 | 0.00 | 97 | 1041.1 |
| 20260510060546 | 71 | 153 | 0.0 | 1.7 | 0.00 | 0.00 | 0.00 | 97 | 1041.1 |
| 20260510060044 | 71 | 217 | 0.0 | 0.9 | 0.00 | 0.00 | 0.00 | 96 | 1041.3 |
| 20260510055542 | 71 | 217 | 0.0 | 0.9 | 0.00 | 0.00 | 0.00 | 97 | 1041.4 |
| 20260510055042 | 71 | 175 | 0.0 | 0.0 | 0.00 | 0.00 | 0.00 | 97 | 1041.4 |
| 20260510054542 | 71 | 131 | 0.0 | 0.0 | 0.00 | 0.00 | 0.00 | 97 | 1041.4 |
| 20260510054041 | 71 | 131 | 0.0 | 0.0 | 0.00 | 0.00 | 0.00 | 97 | 1041.5 |
| 20260510053540 | 71 | 131 | 0.0 | 0.0 | 0.00 | 0.00 | 0.00 | 97 | 1041.6 |
| 20260510053041 | 71 | 131 | 0.0 | 0.0 | 0.00 | 0.00 | 0.00 | 97 | 1041.6 |
| 20260510052539 | 71 | 131 | 0.0 | 0.0 | 0.00 | 0.00 | 0.00 | 97 | 1041.8 |
| 20260510052040 | 71 | 131 | 0.0 | 0.0 | 0.00 | 0.00 | 0.00 | 97 | 1041.9 |
| 20260510051539 | 71 | 131 | 0.0 | 0.0 | 0.00 | 0.00 | 0.00 | 97 | 1042.0 |
| 20260510051037 | 71 | 131 | 0.0 | 0.0 | 0.00 | 0.00 | 0.00 | 97 | 1042.0 |
| 20260510050537 | 71 | 131 | 0.0 | 0.0 | 0.00 | 0.00 | 0.00 | 96 | 1041.9 |
| 20260510050038 | 71 | 131 | 0.0 | 0.0 | 0.00 | 0.00 | 0.00 | 95 | 1041.9 |
| 20260510045536 | 71 | 131 | 0.0 | 0.0 | 0.00 | 0.00 | 0.00 | 94 | 1042.0 |
| 20260510045036 | 71 | 131 | 0.0 | 0.0 | 0.00 | 0.00 | 0.00 | 94 | 1042.2 |
| 20260510044536 | 71 | 131 | 0.0 | 0.0 | 0.00 | 0.00 | 0.00 | 95 | 1042.3 |
| 20260510044033 | 71 | 131 | 0.0 | 0.0 | 0.00 | 0.00 | 0.00 | 94 | 1042.3 |
| 20260510043533 | 72 | 131 | 0.0 | 0.0 | 0.00 | 0.00 | 0.00 | 93 | 1042.3 |
| 20260510043032 | 72 | 131 | 0.0 | 0.0 | 0.00 | 0.00 | 0.00 | 92 | 1042.3 |
| 20260510042530 | 72 | 131 | 0.0 | 0.0 | 0.00 | 0.00 | 0.00 | 91 | 1042.4 |
| 20260510042030 | 72 | 131 | 0.0 | 0.0 | 0.00 | 0.00 | 0.00 | 90 | 1042.4 |
| 20260510041531 | 72 | 131 | 0.0 | 0.0 | 0.00 | 0.00 | 0.00 | 91 | 1042.5 |
| 20260510041027 | 73 | 131 | 0.0 | 0.0 | 0.00 | 0.00 | 0.00 | 90 | 1042.5 |
| 20260510040526 | 73 | 131 | 0.0 | 0.0 | 0.00 | 0.00 | 0.00 | 90 | 1042.5 |
| 20260510040027 | 73 | 131 | 0.0 | 0.0 | 0.00 | 0.00 | 0.00 | 89 | 1042.5 |
| 20260510035525 | 73 | 131 | 0.0 | 0.0 | 0.00 | 0.00 | 0.00 | 88 | 1042.4 |
| 20260510035025 | 73 | 131 | 0.0 | 0.0 | 0.00 | 0.00 | 0.00 | 89 | 1042.3 |
| 20260510034525 | 73 | 131 | 0.0 | 0.0 | 0.00 | 0.00 | 0.00 | 88 | 1042.5 |
| 20260510034024 | 73 | 131 | 0.0 | 0.9 | 0.00 | 0.00 | 0.00 | 88 | 1042.5 |
| 20260510033524 | 73 | 131 | 0.0 | 0.9 | 0.00 | 0.00 | 0.00 | 88 | 1042.5 |
| 20260510033024 | 73 | 131 | 0.0 | 0.0 | 0.00 | 0.00 | 0.00 | 88 | 1042.4 |
| 20260510032523 | 74 | 131 | 0.0 | 0.0 | 0.00 | 0.00 | 0.00 | 88 | 1042.5 |
| 20260510032023 | 74 | 131 | 0.0 | 0.0 | 0.00 | 0.00 | 0.00 | 88 | 1042.5 |
| 20260510031527 | 73 | 131 | 0.0 | 0.0 | 0.00 | 0.00 | 0.00 | 88 | 1042.5 |
| 20260510031022 | 73 | 131 | 0.0 | 0.0 | 0.00 | 0.00 | 0.00 | 88 | 1042.4 |
| 20260510030522 | 73 | 131 | 0.0 | 0.9 | 0.00 | 0.00 | 0.00 | 88 | 1042.3 |
| 20260510030022 | 73 | 131 | 0.0 | 0.9 | 0.00 | 0.00 | 0.00 | 88 | 1042.3 |
| 20260510025522 | 73 | 130 | 0.0 | 0.0 | 0.00 | 0.00 | 0.00 | 89 | 1042.2 |
| 20260510025022 | 73 | 122 | 0.0 | 0.0 | 0.00 | 0.00 | 0.00 | 88 | 1042.2 |
| 20260510024524 | 73 | 122 | 0.0 | 0.9 | 0.00 | 0.00 | 0.00 | 88 | 1042.1 |
| 20260510024020 | 73 | 122 | 0.0 | 0.9 | 0.00 | 0.00 | 0.00 | 87 | 1042.2 |
| 20260510023521 | 73 | 122 | 0.0 | 0.9 | 0.00 | 0.00 | 0.00 | 87 | 1042.1 |
| 20260510023021 | 73 | 122 | 0.0 | 0.0 | 0.00 | 0.00 | 0.00 | 87 | 1042.0 |
| 20260510022521 | 73 | 122 | 0.0 | 0.0 | 0.00 | 0.00 | 0.00 | 87 | 1041.9 |
| 20260510022022 | 73 | 122 | 0.0 | 0.0 | 0.00 | 0.00 | 0.00 | 87 | 1041.9 |
| 20260510021520 | 73 | 122 | 0.0 | 0.0 | 0.00 | 0.00 | 0.00 | 87 | 1041.8 |
| 20260510021022 | 73 | 134 | 0.0 | 0.0 | 0.00 | 0.00 | 0.00 | 87 | 1041.8 |
| 20260510020521 | 73 | 134 | 0.0 | 2.6 | 0.00 | 0.00 | 0.00 | 86 | 1041.6 |
| 20260510020020 | 73 | 129 | 0.0 | 2.6 | 0.00 | 0.00 | 0.00 | 86 | 1041.5 |
| 20260510015523 | 74 | 138 | 0.0 | 1.7 | 0.00 | 0.00 | 0.00 | 87 | 1041.5 |
| 20260510015020 | 74 | 142 | 0.0 | 1.7 | 0.00 | 0.00 | 0.00 | 86 | 1041.4 |
| 20260510014526 | 74 | 145 | 0.0 | 1.7 | 0.00 | 0.00 | 0.00 | 87 | 1041.4 |
| 20260510014019 | 74 | 131 | 0.0 | 0.0 | 0.00 | 0.00 | 0.00 | 86 | 1041.4 |
| 20260510013524 | 74 | 131 | 0.0 | 0.9 | 0.00 | 0.00 | 0.00 | 86 | 1041.4 |
| 20260510013022 | 74 | 131 | 0.0 | 0.9 | 0.00 | 0.00 | 0.00 | 86 | 1041.5 |
| 20260510012520 | 74 | 165 | 0.0 | 0.9 | 0.00 | 0.00 | 0.00 | 86 | 1041.4 |
| 20260510012018 | 74 | 106 | 0.0 | 0.9 | 0.00 | 0.00 | 0.00 | 85 | 1041.3 |
| 20260510011522 | 74 | 106 | 0.0 | 0.9 | 0.00 | 0.00 | 0.00 | 85 | 1041.2 |
| 20260510011018 | 74 | 106 | 0.0 | 0.0 | 0.00 | 0.00 | 0.00 | 84 | 1041.2 |
| 20260510010518 | 74 | 106 | 0.0 | 0.0 | 0.00 | 0.00 | 0.00 | 84 | 1041.2 |
| 20260510010019 | 74 | 106 | 0.0 | 0.0 | 0.00 | 0.00 | 0.00 | 83 | 1041.1 |
| 20260510005518 | 74 | 106 | 0.0 | 0.9 | 0.00 | 0.00 | 0.00 | 83 | 1040.9 |
| 20260510005017 | 74 | 105 | 0.0 | 1.7 | 0.00 | 0.00 | 0.00 | 83 | 1040.8 |
| 20260510004517 | 75 | 55 | 0.0 | 3.5 | 0.00 | 0.00 | 0.00 | 82 | 1040.8 |
| 20260510004020 | 75 | 24 | 0.9 | 3.5 | 0.00 | 0.00 | 0.00 | 82 | 1040.9 |
| 20260510003525 | 75 | 267 | 0.0 | 2.6 | 0.00 | 0.00 | 0.00 | 82 | 1040.8 |
| 20260510003017 | 75 | 34 | 0.0 | 2.6 | 0.00 | 0.00 | 0.00 | 81 | 1040.6 |
| 20260510002516 | 75 | 19 | 0.0 | 3.5 | 0.00 | 0.00 | 0.00 | 81 | 1040.7 |
| 20260510002016 | 75 | 41 | 0.9 | 4.3 | 0.00 | 0.00 | 0.00 | 80 | 1040.6 |
| 20260510001516 | 75 | 355 | 1.7 | 7.8 | 0.00 | 0.00 | 0.00 | 80 | 1040.7 |
| 20260510001016 | 75 | 44 | 3.5 | 7.8 | 0.00 | 0.00 | 0.00 | 80 | 1040.6 |
| 20260510000516 | 75 | 26 | 3.5 | 7.0 | 0.00 | 0.00 | 0.00 | 80 | 1040.6 |
| 20260510000016 | 75 | 27 | 3.5 | 5.2 | 0.00 | 0.00 | 0.00 | 80 | 1040.5 |
| 20260509235516 | 75 | 42 | 2.6 | 7.8 | 0.00 | 0.00 | 0.00 | 80 | 1040.4 |
| 20260509235015 | 76 | 88 | 3.5 | 7.8 | 0.00 | 0.00 | 0.00 | 79 | 1040.5 |
| 20260509234528 | 76 | 24 | 2.6 | 7.8 | 0.00 | 0.00 | 0.00 | 80 | 1040.5 |
| 20260509234016 | 76 | 36 | 4.3 | 7.8 | 0.00 | 0.00 | 0.00 | 80 | 1040.4 |
| 20260509233514 | 76 | 31 | 2.6 | 8.7 | 0.00 | 0.00 | 0.00 | 79 | 1040.3 |
| 20260509233030 | 76 | 39 | 2.6 | 8.7 | 0.00 | 0.00 | 0.00 | 79 | 1040.3 |
| 20260509232514 | 76 | 355 | 2.6 | 8.7 | 0.00 | 0.00 | 0.00 | 80 | 1040.4 |
| 20260509232014 | 76 | 15 | 3.5 | 9.6 | 0.00 | 0.00 | 0.00 | 79 | 1040.4 |
| 20260509231514 | 77 | 14 | 3.5 | 9.6 | 0.00 | 0.00 | 0.00 | 79 | 1040.5 |
| 20260509231013 | 77 | 305 | 0.9 | 6.1 | 0.00 | 0.00 | 0.00 | 79 | 1040.4 |
| 20260509230513 | 77 | 325 | 1.7 | 6.1 | 0.00 | 0.00 | 0.00 | 79 | 1040.4 |
| 20260509230013 | 77 | 35 | 1.7 | 9.6 | 0.00 | 0.00 | 0.00 | 79 | 1040.4 |
| 20260509225513 | 78 | 305 | 4.3 | 11.3 | 0.00 | 0.00 | 0.00 | 77 | 1040.3 |
| 20260509225013 | 79 | 50 | 4.3 | 11.3 | 0.00 | 0.00 | 0.00 | 76 | 1040.3 |
| 20260509224516 | 80 | 29 | 3.5 | 10.4 | 0.00 | 0.00 | 0.00 | 74 | 1040.2 |
| 20260509224016 | 81 | 29 | 4.3 | 11.3 | 0.00 | 0.00 | 0.00 | 72 | 1040.0 |
| 20260509223512 | 82 | 20 | 5.2 | 11.3 | 0.00 | 0.00 | 0.00 | 69 | 1039.9 |
| 20260509223015 | 82 | 261 | 1.7 | 8.7 | 0.00 | 0.00 | 0.00 | 68 | 1040.0 |
| 20260509222512 | 82 | 64 | 2.6 | 8.7 | 0.00 | 0.00 | 0.00 | 68 | 1039.9 |
| 20260509222011 | 83 | 102 | 1.7 | 7.8 | 0.00 | 0.00 | 0.00 | 67 | 1039.8 |
| 20260509221512 | 83 | 121 | 1.7 | 7.8 | 0.00 | 0.00 | 0.00 | 67 | 1039.8 |
| 20260509221014 | 83 | 50 | 3.5 | 8.7 | 0.00 | 0.00 | 0.00 | 67 | 1039.8 |
| 20260509220511 | 83 | 45 | 1.7 | 8.7 | 0.00 | 0.00 | 0.00 | 66 | 1039.6 |
| 20260509220018 | 84 | 325 | 1.7 | 4.3 | 0.00 | 0.00 | 0.00 | 66 | 1039.7 |
| 20260509215511 | 84 | 67 | 0.9 | 5.2 | 0.00 | 0.00 | 0.00 | 66 | 1039.6 |
| 20260509215017 | 84 | 28 | 1.7 | 7.0 | 0.00 | 0.00 | 0.00 | 65 | 1039.5 |
| 20260509214511 | 84 | 71 | 0.9 | 5.2 | 0.00 | 0.00 | 0.00 | 64 | 1039.4 |
| 20260509214012 | 84 | 26 | 0.9 | 5.2 | 0.00 | 0.00 | 0.00 | 64 | 1039.2 |
| 20260509213522 | 84 | 360 | 1.7 | 7.8 | 0.00 | 0.00 | 0.00 | 63 | 1039.2 |
| 20260509213010 | 84 | 321 | 1.7 | 7.8 | 0.00 | 0.00 | 0.00 | 64 | 1039.2 |
| 20260509212509 | 85 | 15 | 1.7 | 8.7 | 0.00 | 0.00 | 0.00 | 63 | 1039.1 |
| 20260509212013 | 85 | 37 | 1.7 | 8.7 | 0.00 | 0.00 | 0.00 | 62 | 1039.0 |
| 20260509211509 | 85 | 292 | 1.7 | 7.0 | 0.00 | 0.00 | 0.00 | 62 | 1039.0 |
| 20260509211009 | 86 | 271 | 2.6 | 7.8 | 0.00 | 0.00 | 0.00 | 61 | 1038.9 |
| 20260509210509 | 86 | 276 | 2.6 | 7.8 | 0.00 | 0.00 | 0.00 | 61 | 1038.8 |
| 20260509210009 | 87 | 282 | 2.6 | 7.8 | 0.00 | 0.00 | 0.00 | 62 | 1038.9 |
| 20260509205508 | 86 | 84 | 1.7 | 7.0 | 0.00 | 0.00 | 0.00 | 61 | 1038.9 |
| 20260509205008 | 87 | 298 | 2.6 | 7.8 | 0.00 | 0.00 | 0.00 | 59 | 1038.8 |
| 20260509204508 | 87 | 255 | 3.5 | 7.8 | 0.00 | 0.00 | 0.00 | 56 | 1038.9 |
| 20260509204014 | 87 | 42 | 1.7 | 7.0 | 0.00 | 0.00 | 0.00 | 59 | 1039.0 |
| 20260509203508 | 88 | 119 | 1.7 | 12.2 | 0.00 | 0.00 | 0.00 | 58 | 1038.9 |
| 20260509203008 | 87 | 142 | 0.9 | 12.2 | 0.00 | 0.00 | 0.00 | 59 | 1038.9 |
| 20260509202507 | 86 | 232 | 0.9 | 12.2 | 0.00 | 0.00 | 0.00 | 60 | 1038.9 |
| 20260509202006 | 87 | 261 | 5.2 | 12.2 | 0.00 | 0.00 | 0.00 | 59 | 1039.0 |
| 20260509201507 | 87 | 278 | 6.1 | 9.6 | 0.00 | 0.00 | 0.00 | 59 | 1039.0 |
| 20260509201008 | 86 | 287 | 3.5 | 8.7 | 0.00 | 0.00 | 0.00 | 62 | 1039.1 |
| 20260509200510 | 85 | 316 | 2.6 | 7.8 | 0.00 | 0.00 | 0.00 | 62 | 1039.1 |
| 20260509200006 | 85 | 30 | 3.5 | 13.0 | 0.00 | 0.00 | 0.00 | 62 | 1039.0 |
| 20260509195506 | 85 | 283 | 4.3 | 13.0 | 0.00 | 0.00 | 0.00 | 59 | 1039.1 |
| 20260509195007 | 85 | 271 | 3.5 | 7.0 | 0.00 | 0.00 | 0.00 | 61 | 1039.1 |
| 20260509194508 | 85 | 325 | 1.7 | 8.7 | 0.00 | 0.00 | 0.00 | 59 | 1039.1 |
| 20260509194005 | 85 | 273 | 4.3 | 10.4 | 0.00 | 0.00 | 0.00 | 60 | 1039.0 |
| 20260509193504 | 86 | 277 | 4.3 | 10.4 | 0.00 | 0.00 | 0.00 | 59 | 1039.0 |
| 20260509193005 | 86 | 315 | 2.6 | 8.7 | 0.00 | 0.00 | 0.00 | 58 | 1039.0 |
| 20260509192504 | 86 | 279 | 4.3 | 8.7 | 0.00 | 0.00 | 0.00 | 56 | 1039.0 |
| 20260509192004 | 86 | 259 | 5.2 | 8.7 | 0.00 | 0.00 | 0.00 | 57 | 1039.1 |
| 20260509191503 | 86 | 302 | 1.7 | 11.3 | 0.00 | 0.00 | 0.00 | 57 | 1039.2 |
| 20260509191004 | 86 | 282 | 5.2 | 11.3 | 0.00 | 0.00 | 0.00 | 55 | 1039.4 |
| 20260509190506 | 86 | 196 | 4.3 | 11.3 | 0.00 | 0.00 | 0.00 | 54 | 1039.5 |
| 20260509190002 | 86 | 261 | 2.6 | 11.3 | 0.00 | 0.00 | 0.00 | 57 | 1039.5 |
| 20260509185504 | 86 | 279 | 2.6 | 10.4 | 0.00 | 0.00 | 0.00 | 57 | 1039.5 |
| 20260509185003 | 86 | 283 | 3.5 | 13.9 | 0.00 | 0.00 | 0.00 | 55 | 1039.4 |
| 20260509184505 | 86 | 277 | 5.2 | 13.9 | 0.00 | 0.00 | 0.00 | 57 | 1039.3 |
| 20260509184059 | 87 | 251 | 5.2 | 10.4 | 0.00 | 0.00 | 0.00 | 57 | 1039.4 |
| 20260509183559 | 87 | 280 | 5.2 | 9.6 | 0.00 | 0.00 | 0.00 | 57 | 1039.5 |
| 20260509183059 | 87 | 328 | 2.6 | 11.3 | 0.00 | 0.00 | 0.00 | 58 | 1039.5 |
| 20260509182600 | 86 | 296 | 3.5 | 12.2 | 0.00 | 0.00 | 0.00 | 59 | 1039.4 |
| 20260509182058 | 86 | 303 | 6.1 | 12.2 | 0.00 | 0.00 | 0.00 | 58 | 1039.6 |
| 20260509181604 | 85 | 256 | 6.1 | 11.3 | 0.00 | 0.00 | 0.00 | 65 | 1039.6 |
| 20260509181059 | 84 | 260 | 1.7 | 6.1 | 0.00 | 0.00 | 0.00 | 74 | 1039.7 |
| 20260509180601 | 82 | 262 | 0.0 | 7.8 | 0.00 | 0.00 | 0.00 | 81 | 1039.6 |
| 20260509180103 | 84 | 232 | 1.7 | 12.2 | 0.00 | 0.00 | 0.00 | 72 | 1039.8 |
| 20260509175557 | 83 | 242 | 2.6 | 7.8 | 0.00 | 0.00 | 0.00 | 74 | 1039.8 |
| 20260509175057 | 85 | 204 | 0.0 | 4.3 | 0.00 | 0.00 | 0.00 | 72 | 1040.1 |
| 20260509174557 | 86 | 236 | 2.6 | 7.8 | 0.00 | 0.00 | 0.00 | 62 | 1040.0 |
| 20260509174056 | 85 | 258 | 3.5 | 7.8 | 0.00 | 0.00 | 0.00 | 63 | 1039.9 |
| 20260509173600 | 85 | 248 | 0.9 | 4.3 | 0.00 | 0.00 | 0.00 | 67 | 1040.0 |
| 20260509173101 | 85 | 304 | 0.0 | 7.0 | 0.00 | 0.00 | 0.00 | 65 | 1040.0 |
| 20260509172556 | 87 | 309 | 1.7 | 13.0 | 0.00 | 0.00 | 0.00 | 61 | 1040.0 |
| 20260509172057 | 88 | 259 | 6.1 | 13.0 | 0.00 | 0.00 | 0.00 | 58 | 1039.9 |
| 20260509171556 | 88 | 258 | 2.6 | 7.0 | 0.00 | 0.00 | 0.00 | 59 | 1039.8 |